TimeCST,TemperatureF,Dew PointF,Humidity,Sea Level PressureIn,VisibilityMPH,Wind Direction,Wind SpeedMPH,Gust SpeedMPH,PrecipitationIn,Events,Conditions,WindDirDegrees,DateUTC
12:52 AM,19.0,12.9,77,30.58,10.0,WNW,5.8,-,N/A,,Clear,290,2013-11-23 06:52:00
1:52 AM,19.0,12.9,77,30.60,10.0,West,6.9,-,N/A,,Clear,280,2013-11-23 07:52:00
2:52 AM,21.0,14.0,74,30.61,10.0,NW,10.4,-,N/A,,Clear,320,2013-11-23 08:52:00
3:52 AM,21.0,14.0,74,30.63,10.0,NW,8.1,-,N/A,,Clear,310,2013-11-23 09:52:00
4:52 AM,19.9,12.9,74,30.64,10.0,NW,9.2,-,N/A,,Clear,310,2013-11-23 10:52:00
5:52 AM,19.0,12.0,74,30.66,10.0,NW,15.0,21.9,N/A,,Clear,320,2013-11-23 11:52:00
6:52 AM,17.1,8.1,68,30.69,10.0,NNW,12.7,23.0,N/A,,Clear,330,2013-11-23 12:52:00
7:52 AM,15.1,6.1,68,30.73,10.0,NW,16.1,20.7,N/A,,Clear,320,2013-11-23 13:52:00
8:52 AM,16.0,3.9,59,30.76,10.0,NNW,16.1,26.5,N/A,,Clear,340,2013-11-23 14:52:00
9:52 AM,17.1,3.9,56,30.79,10.0,NNW,19.6,24.2,N/A,,Clear,340,2013-11-23 15:52:00
10:52 AM,19.0,5.0,54,30.79,10.0,NW,18.4,23.0,N/A,,Clear,320,2013-11-23 16:52:00
11:52 AM,19.9,5.0,52,30.79,10.0,North,15.0,21.9,N/A,,Clear,350,2013-11-23 17:52:00
12:52 PM,21.9,5.0,48,30.79,10.0,NNW,17.3,23.0,N/A,,Clear,330,2013-11-23 18:52:00
1:52 PM,21.9,3.9,46,30.79,10.0,NNW,15.0,23.0,N/A,,Clear,330,2013-11-23 19:52:00
2:52 PM,21.9,5.0,48,30.79,10.0,NNW,16.1,21.9,N/A,,Clear,330,2013-11-23 20:52:00
3:52 PM,21.0,5.0,50,30.80,10.0,NW,12.7,-,N/A,,Clear,320,2013-11-23 21:52:00
4:52 PM,19.0,6.1,57,30.81,10.0,NW,13.8,-,N/A,,Clear,320,2013-11-23 22:52:00
5:52 PM,17.1,6.1,62,30.82,10.0,NW,9.2,-,N/A,,Clear,320,2013-11-23 23:52:00
6:52 PM,16.0,7.0,68,30.82,10.0,NW,6.9,-,N/A,,Clear,320,2013-11-24 00:52:00
7:52 PM,15.1,6.1,68,30.84,10.0,NNW,8.1,-,N/A,,Clear,330,2013-11-24 01:52:00
8:52 PM,15.1,5.0,64,30.82,10.0,NNW,8.1,-,N/A,,Clear,340,2013-11-24 02:52:00
9:52 PM,14.0,3.9,64,30.81,10.0,North,6.9,-,N/A,,Clear,350,2013-11-24 03:52:00
10:52 PM,12.0,5.0,73,30.82,10.0,WNW,5.8,-,N/A,,Clear,300,2013-11-24 04:52:00
11:52 PM,10.9,5.0,77,30.82,10.0,WNW,4.6,-,N/A,,Clear,290,2013-11-24 05:52:00